Sisseton, SD

3:28 AM CDT on July 24, 2016 (GMT -0500)
Sisseton

Weather History for K8D3 - October, 2010

Change the Weather History Date:

Saturday, October 2, 2010

  Actual Average Record
Temperature  
Mean Temperature 46 °F 52 °F  
Max Temperature 57 °F 65 °F 93 °F (1953)
Min Temperature 34 °F 40 °F 14 °F (1974)
Degree Days  
Heating Degree Days 19 13  
Month to date heating degree days 32 25  
Since 1 July heating degree days 268 270  
Cooling Degree Days 0 0  
Month to date cooling degree days 0 0  
Year to date cooling degree days 587 523  
Moisture  
Dew Point 35 °F    
Average Humidity 72    
Maximum Humidity 100    
Minimum Humidity 43    
Precipitation  
Precipitation 0.00 in 0.10 in 0.80 in (1941)
Month to date precipitation 0.00 0.20  
Year to date precipitation 21.76 19.48  
Snow  
Snow 0.00 in - - ()
Month to date snowfall 0.0  
Since 1 July snowfall 0.0  
Snow Depth 0.00 in    
Sea Level Pressure  
Sea Level Pressure 30.45 in    
Wind  
Wind Speed 4 mph (North)    
Max Wind Speed 9 mph    
Max Gust Speed 13 mph    
T = Trace of Precipitation, MM = Missing Value Source: NWS Daily Summary

Daily Weather History Graph

Daily Weather History Graph

Search for Another Location

Airport or City:

Trip Planner

Search our weather history database for the weather conditions in past years. The results will help you decide how hot, cold, wet, or windy it might be!

Date:

Astronomy

Oct. 02, 2010 Rise Set
Actual Time 7:27 AM CDT 7:06 PM CDT
Civil Twilight 6:57 AM CDT 7:35 PM CDT
Nautical Twilight 6:23 AM CDT 8:10 PM CDT
Astronomical Twilight 5:48 AM CDT 8:45 PM CDT
Moon 12:54 AM CDT (10/2) 4:11 PM CDT (10/2)
Length of Visible Light 12h 37m
Length of Day
11h 38m
Waning Crescent, 33% of the Moon is Illuminated
Oct 2
Waning Crescent
Oct 7
New
Oct 14
First Quarter
Oct 22
Full
Oct 30
Last Quarter

Hourly Weather History & Observations

Time (CDT) Temp. Windchill Dew Point Humidity Pressure Visibility Wind Dir Wind Speed Gust Speed Precip Events Conditions
12:56 AM 44.1 °F 40.1 °F 37.0 °F 76% 30.39 in - North 6.9 mph - N/A   Unknown
1:56 AM 41.0 °F 35.8 °F 37.0 °F 86% 30.40 in - NNW 8.1 mph - N/A   Unknown
2:56 AM 39.0 °F 34.0 °F 36.0 °F 89% 30.42 in - NNW 6.9 mph - N/A   Unknown
3:56 AM 37.9 °F 32.7 °F 36.0 °F 93% 30.43 in - NNW 6.9 mph - N/A   Unknown
4:56 AM 37.0 °F 32.4 °F 35.1 °F 93% 30.45 in - NNW 5.8 mph - N/A   Unknown
5:56 AM 36.0 °F 32.1 °F 35.1 °F 97% 30.47 in - North 4.6 mph - N/A   Unknown
6:56 AM 34.0 °F 31.0 °F 33.1 °F 96% 30.50 in - NW 3.5 mph - N/A   Unknown
7:56 AM 35.1 °F 31.0 °F 34.0 °F 96% 30.52 in - NNW 4.6 mph - N/A   Unknown
8:56 AM 39.0 °F 34.8 °F 37.0 °F 93% 30.53 in - NNW 5.8 mph - N/A   Unknown
9:56 AM 44.1 °F 41.5 °F 39.0 °F 82% 30.53 in - NNE 4.6 mph - N/A   Unknown
10:56 AM 48.9 °F - 39.0 °F 69% 30.52 in - ESE 4.6 mph - N/A   Unknown
11:56 AM 48.9 °F - 36.0 °F 61% 30.51 in - Calm Calm - N/A   Unknown
12:56 PM 52.0 °F - 35.1 °F 53% 30.50 in - ESE 4.6 mph - N/A   Unknown
1:56 PM 55.0 °F - 36.0 °F 49% 30.48 in - ENE 5.8 mph - N/A   Unknown
2:56 PM 54.0 °F - 34.0 °F 47% 30.45 in - Calm Calm - N/A   Unknown
3:56 PM 55.0 °F - 33.1 °F 43% 30.44 in - Calm Calm - N/A   Unknown
4:56 PM 55.9 °F - 34.0 °F 44% 30.42 in - SSE 4.6 mph - N/A   Unknown
5:56 PM 55.0 °F - 35.1 °F 47% 30.41 in - SE 3.5 mph - N/A   Unknown
6:56 PM 50.0 °F - 35.1 °F 57% 30.41 in - Calm Calm - N/A   Unknown
7:56 PM 42.1 °F - 34.0 °F 73% 30.41 in - Calm Calm - N/A   Unknown
8:56 PM 42.1 °F - 35.1 °F 76% 30.41 in - Calm Calm - N/A   Unknown
9:56 PM 37.0 °F 34.5 °F 33.1 °F 86% 30.40 in - SW 3.5 mph - N/A   Unknown
10:56 PM 37.9 °F 32.7 °F 33.1 °F 83% 30.39 in - SSW 6.9 mph - N/A   Unknown
11:56 PM 36.0 °F - 32.0 °F 86% 30.39 in - Calm Calm - N/A   Unknown